Time,TemperatureF,DewpointF,PressureIn,WindDirection,WindDirectionDegrees,WindSpeedMPH,WindSpeedGustMPH,Humidity,HourlyPrecipIn,Conditions,Clouds,dailyrainin,SoftwareType,DateUTC
2013-12-13 00:00:00,16.7,9.3,30.31,SW,236,2.0,8.0,72,0.00,,---,0.00,VWS V14.01,2013-12-13 05:00:00,
2013-12-13 00:01:00,16.7,9.3,30.31,SW,236,2.0,8.0,72,0.00,,---,0.00,VWS V14.01,2013-12-13 05:01:00,
2013-12-13 00:30:00,16.7,9.3,30.30,SSW,198,3.0,9.0,72,0.00,,---,0.00,VWS V14.01,2013-12-13 05:30:00,
2013-12-13 00:31:00,16.7,9.3,30.30,SSW,198,3.0,9.0,72,0.00,,---,0.00,VWS V14.01,2013-12-13 05:31:00,
2013-12-13 01:01:00,16.9,9.8,30.30,SW,215,4.0,10.0,73,0.00,,---,0.00,VWS V14.01,2013-12-13 06:01:00,
2013-12-13 01:31:00,17.0,9.9,30.29,WSW,243,1.0,10.0,73,0.00,,---,0.00,VWS V14.01,2013-12-13 06:31:00,
2013-12-13 02:01:00,17.0,10.2,30.28,SW,219,3.0,9.0,74,0.00,,---,0.00,VWS V14.01,2013-12-13 07:01:00,
2013-12-13 02:31:00,16.0,9.2,30.28,SSW,203,0.0,6.0,74,0.00,,---,0.00,VWS V14.01,2013-12-13 07:31:00,
2013-12-13 03:00:00,13.9,8.0,30.28,SSE,159,1.0,3.0,77,0.00,,---,0.00,VWS V14.01,2013-12-13 08:00:00,
2013-12-13 03:01:00,13.9,8.0,30.28,SSE,159,1.0,3.0,77,0.00,,---,0.00,VWS V14.01,2013-12-13 08:01:00,
2013-12-13 03:30:00,12.3,7.3,30.28,ESE,110,0.0,1.0,80,0.00,,---,0.00,VWS V14.01,2013-12-13 08:30:00,
2013-12-13 03:31:00,12.3,7.3,30.28,ESE,110,0.0,1.0,80,0.00,,---,0.00,VWS V14.01,2013-12-13 08:31:00,
2013-12-13 04:00:00,12.1,7.4,30.26,East,81,1.0,3.0,81,0.00,,---,0.00,VWS V14.01,2013-12-13 09:00:00,
2013-12-13 04:01:00,12.1,7.4,30.26,East,81,1.0,3.0,81,0.00,,---,0.00,VWS V14.01,2013-12-13 09:01:00,
2013-12-13 04:30:00,11.5,7.1,30.25,ESE,122,1.0,1.0,82,0.00,,---,0.00,VWS V14.01,2013-12-13 09:30:00,
2013-12-13 04:31:00,11.5,7.1,30.25,ESE,122,1.0,1.0,82,0.00,,---,0.00,VWS V14.01,2013-12-13 09:31:00,
2013-12-13 05:01:00,10.8,6.9,30.25,ESE,120,1.0,2.0,84,0.00,,---,0.00,VWS V14.01,2013-12-13 10:01:00,
2013-12-13 05:31:00,11.1,7.0,30.25,ESE,110,1.0,1.0,83,0.00,,---,0.00,VWS V14.01,2013-12-13 10:31:00,
2013-12-13 06:00:00,10.7,6.8,30.25,ESE,114,1.0,2.0,84,0.00,,---,0.00,VWS V14.01,2013-12-13 11:00:00,
2013-12-13 06:01:00,10.7,6.8,30.25,ESE,114,1.0,2.0,84,0.00,,---,0.00,VWS V14.01,2013-12-13 11:01:00,
2013-12-13 06:31:00,12.0,8.4,30.25,SE,141,1.0,2.0,85,0.00,,---,0.00,VWS V14.01,2013-12-13 11:31:00,
2013-12-13 07:01:00,13.7,9.8,30.25,ESE,108,0.0,2.0,84,0.00,,---,0.00,VWS V14.01,2013-12-13 12:01:00,
2013-12-13 07:30:00,14.7,10.2,30.26,ESE,115,1.0,1.0,82,0.00,,---,0.00,VWS V14.01,2013-12-13 12:30:00,
2013-12-13 07:31:00,14.7,10.2,30.26,ESE,115,1.0,1.0,82,0.00,,---,0.00,VWS V14.01,2013-12-13 12:31:00,
2013-12-13 08:00:00,13.8,9.6,30.27,ESE,120,1.0,1.0,83,0.00,,---,0.00,VWS V14.01,2013-12-13 13:00:00,
2013-12-13 08:01:00,13.8,9.6,30.27,ESE,120,1.0,1.0,83,0.00,,---,0.00,VWS V14.01,2013-12-13 13:01:00,
2013-12-13 08:30:00,13.5,9.8,30.27,ESE,113,0.0,2.0,85,0.00,,---,0.00,VWS V14.01,2013-12-13 13:30:00,
2013-12-13 08:31:00,13.5,9.8,30.27,ESE,113,0.0,2.0,85,0.00,,---,0.00,VWS V14.01,2013-12-13 13:31:00,
2013-12-13 09:01:00,14.7,10.5,30.27,SE,124,0.0,1.0,83,0.00,,---,0.00,VWS V14.01,2013-12-13 14:01:00,
2013-12-13 09:30:00,18.6,13.2,30.27,ESE,121,0.0,4.0,79,0.00,,---,0.00,VWS V14.01,2013-12-13 14:30:00,
2013-12-13 09:31:00,18.6,13.2,30.27,ESE,121,0.0,4.0,79,0.00,,---,0.00,VWS V14.01,2013-12-13 14:31:00,
2013-12-13 10:00:00,21.2,14.2,30.27,SW,218,2.0,4.0,74,0.00,,---,0.00,VWS V14.01,2013-12-13 15:00:00,
2013-12-13 10:01:00,21.2,14.2,30.27,SW,218,2.0,4.0,74,0.00,,---,0.00,VWS V14.01,2013-12-13 15:01:00,
2013-12-13 10:30:00,22.5,15.2,30.27,SW,226,5.0,6.0,73,0.00,,---,0.00,VWS V14.01,2013-12-13 15:30:00,
2013-12-13 10:31:00,22.5,15.2,30.27,SW,226,5.0,6.0,73,0.00,,---,0.00,VWS V14.01,2013-12-13 15:31:00,
2013-12-13 11:00:00,23.6,15.6,30.26,WNW,282,1.0,5.0,71,0.00,,---,0.00,VWS V14.01,2013-12-13 16:00:00,
2013-12-13 11:01:00,23.6,15.6,30.26,WNW,282,1.0,5.0,71,0.00,,---,0.00,VWS V14.01,2013-12-13 16:01:00,
2013-12-13 11:31:00,24.6,16.2,30.25,SW,225,3.0,4.0,70,0.00,,---,0.00,VWS V14.01,2013-12-13 16:31:00,
2013-12-13 12:00:00,26.4,17.6,30.24,West,281,2.0,4.0,69,0.00,,---,0.00,VWS V14.01,2013-12-13 17:00:00,
2013-12-13 12:01:00,26.4,17.6,30.24,West,281,2.0,4.0,69,0.00,,---,0.00,VWS V14.01,2013-12-13 17:01:00,
2013-12-13 12:30:00,28.4,18.5,30.22,South,174,2.0,4.0,66,0.00,,---,0.00,VWS V14.01,2013-12-13 17:30:00,
2013-12-13 12:31:00,28.4,18.5,30.22,South,174,2.0,4.0,66,0.00,,---,0.00,VWS V14.01,2013-12-13 17:31:00,
2013-12-13 13:00:00,28.8,18.5,30.21,SW,222,0.0,5.0,65,0.00,,---,0.00,VWS V14.01,2013-12-13 18:00:00,
2013-12-13 13:01:00,28.8,18.5,30.21,SW,222,0.0,5.0,65,0.00,,---,0.00,VWS V14.01,2013-12-13 18:01:00,
2013-12-13 13:31:00,29.4,19.1,30.20,SW,221,1.0,5.0,65,0.00,,---,0.00,VWS V14.01,2013-12-13 18:31:00,
2013-12-13 14:00:00,29.0,19.4,30.19,SE,145,3.0,5.0,67,0.00,,---,0.00,VWS V14.01,2013-12-13 19:00:00,
2013-12-13 14:01:00,29.0,19.4,30.19,SE,145,3.0,5.0,67,0.00,,---,0.00,VWS V14.01,2013-12-13 19:01:00,
2013-12-13 14:31:00,30.5,20.5,30.19,East,94,1.0,5.0,66,0.00,,---,0.00,VWS V14.01,2013-12-13 19:31:00,
2013-12-13 15:00:00,30.9,20.2,30.19,SE,136,1.0,4.0,64,0.00,,---,0.00,VWS V14.01,2013-12-13 20:00:00,
2013-12-13 15:01:00,30.9,20.2,30.19,SE,136,1.0,4.0,64,0.00,,---,0.00,VWS V14.01,2013-12-13 20:01:00,
2013-12-13 15:30:00,29.7,20.1,30.19,East,94,1.0,3.0,67,0.00,,---,0.00,VWS V14.01,2013-12-13 20:30:00,
2013-12-13 15:31:00,29.7,20.1,30.19,East,94,1.0,3.0,67,0.00,,---,0.00,VWS V14.01,2013-12-13 20:31:00,
2013-12-13 16:01:00,29.2,21.0,30.17,ESE,110,1.0,3.0,71,0.00,,---,0.00,VWS V14.01,2013-12-13 21:01:00,
2013-12-13 16:31:00,28.9,21.0,30.17,East,88,2.0,5.0,72,0.00,,---,0.00,VWS V14.01,2013-12-13 21:31:00,
2013-12-13 17:00:00,28.4,20.9,30.17,ESE,108,3.0,6.0,73,0.00,,---,0.00,VWS V14.01,2013-12-13 22:00:00,
2013-12-13 17:01:00,28.4,20.9,30.17,ESE,108,3.0,6.0,73,0.00,,---,0.00,VWS V14.01,2013-12-13 22:01:00,
2013-12-13 17:30:00,28.1,20.9,30.17,East,97,1.0,6.0,74,0.00,,---,0.00,VWS V14.01,2013-12-13 22:30:00,
2013-12-13 17:31:00,28.1,20.9,30.17,East,97,1.0,6.0,74,0.00,,---,0.00,VWS V14.01,2013-12-13 22:31:00,
2013-12-13 18:00:00,28.0,20.8,30.19,ESE,105,1.0,5.0,74,0.00,,---,0.00,VWS V14.01,2013-12-13 23:00:00,
2013-12-13 18:01:00,28.0,20.8,30.19,ESE,105,1.0,5.0,74,0.00,,---,0.00,VWS V14.01,2013-12-13 23:01:00,
2013-12-13 18:30:00,27.8,21.2,30.19,East,96,1.0,4.0,76,0.00,,---,0.00,VWS V14.01,2013-12-13 23:30:00,
2013-12-13 18:31:00,27.8,21.2,30.19,East,96,1.0,4.0,76,0.00,,---,0.00,VWS V14.01,2013-12-13 23:31:00,
2013-12-13 19:00:00,28.0,21.1,30.20,ENE,77,1.0,6.0,75,0.00,,---,0.00,VWS V14.01,2013-12-14 00:00:00,
2013-12-13 19:01:00,28.0,21.1,30.20,ENE,77,1.0,6.0,75,0.00,,---,0.00,VWS V14.01,2013-12-14 00:01:00,
2013-12-13 19:31:00,28.2,21.6,30.20,ESE,114,1.0,6.0,76,0.00,,---,0.00,VWS V14.01,2013-12-14 00:31:00,
2013-12-13 20:01:00,28.3,22.3,30.21,ESE,111,1.0,4.0,78,0.00,,---,0.00,VWS V14.01,2013-12-14 01:01:00,
2013-12-13 20:30:00,28.3,22.6,30.20,ESE,103,2.0,5.0,79,0.00,,---,0.00,VWS V14.01,2013-12-14 01:30:00,
2013-12-13 20:31:00,28.3,22.6,30.20,ESE,103,2.0,5.0,79,0.00,,---,0.00,VWS V14.01,2013-12-14 01:31:00,
2013-12-13 21:01:00,28.3,22.9,30.20,ESE,104,2.0,3.0,80,0.00,,---,0.00,VWS V14.01,2013-12-14 02:01:00,
2013-12-13 21:30:00,28.0,22.9,30.18,ESE,120,1.0,4.0,81,0.00,,---,0.00,VWS V14.01,2013-12-14 02:30:00,
2013-12-13 21:31:00,28.0,22.9,30.18,ESE,120,1.0,4.0,81,0.00,,---,0.00,VWS V14.01,2013-12-14 02:31:00,
2013-12-13 22:01:00,28.0,23.5,30.19,ESE,108,1.0,4.0,83,0.00,,---,0.00,VWS V14.01,2013-12-14 03:01:00,
2013-12-13 22:31:00,27.2,24.4,30.18,SE,129,1.0,3.0,89,0.00,,---,0.00,VWS V14.01,2013-12-14 03:31:00,
2013-12-13 23:00:00,26.9,24.9,30.18,ESE,106,1.0,3.0,92,0.00,,---,0.00,VWS V14.01,2013-12-14 04:00:00,
2013-12-13 23:01:00,26.9,24.9,30.18,ESE,106,1.0,3.0,92,0.00,,---,0.00,VWS V14.01,2013-12-14 04:01:00,
2013-12-13 23:30:00,26.8,24.8,30.18,ESE,108,1.0,3.0,92,0.00,,---,0.00,VWS V14.01,2013-12-14 04:30:00,
2013-12-13 23:31:00,26.8,24.8,30.18,ESE,108,1.0,3.0,92,0.00,,---,0.00,VWS V14.01,2013-12-14 04:31:00,